Regional Weather Roundup
Issued by NWS

Home | Current Version | Previous Version | Text Only | Print | Product List | Glossary Off
Versions: 1 2 3 4 5 6 7 8 9 10 11 12 13 14 15 16 17 18 19 20 21 22 23 24 25 26 27 28 29 30 31 32 33 34 35 36 37 38 39 40 41 42 43 44 45 46 47 48 49 50

000
ASUS45 KABQ 300101
RWRNM
NEW MEXICO REGIONAL WEATHER ROUNDUP
NATIONAL WEATHER SERVICE ALBUQUERQUE NM
700 PM MDT SAT AUG 29 2015

NOTE: "FAIR" MEANS FEW OR NO CLOUDS BELOW 12,000 FEET AGL WITH NO
       SIGNIFICANT WEATHER OR OBSTRUCTIONS TO VISION.

      THIS PRODUCT IS RELEASED AS TWO VERSIONS.  ONE VERSION NEAR
      THE TOP OF THE HOUR CONTAINING PRELIMINARY DATA FROM ALBUQUERQUE
      AND OTHER STATIONS.  A FINAL VERSION WITH ADDITIONAL DATA IS
      ISSUED ABOUT 10 MINUTES AFTER THE HOUR.

NMZ501-503-504-510>518-300200-
NORTHWEST PLATEAU/NORTHCENTRAL MOUNTAINS

CITY           SKY/WX    TMP DP  RH WIND       PRES   REMARKS
FARMINGTON     CLEAR     88  36  15 W5        30.13F
SANTA FE       MOCLDY    78  44  29 S7        30.27F
TAOS           PTCLDY    72  37  28 SE7       30.36S
ANGEL FIRE     FAIR      60  49  66 NW3       30.46S

$$
NMZ402-403-502-505>509-300200-
WESTCENTRAL MOUNTAINS/SOUTHWEST MOUNTAINS

CITY           SKY/WX    TMP DP  RH WIND       PRES   REMARKS
GALLUP         MOCLDY    79  43  27 S14       30.24R
GRANTS         PTCLDY    74  48  38 S5        30.26S
SILVER CITY      N/A     77  55  47 N7        30.20R

$$
NMZ407-409-411-412-300200-
SOUTHERN DESERTS

CITY           SKY/WX    TMP DP  RH WIND       PRES   REMARKS
DEMING         PTCLDY    88  49  25 SE7       30.08R
HOLLOMAN AFB   MOCLDY    84  59  42 N5        30.07R
ALAMOGORDO     PTCLDY    84  57  39 CALM      30.09S
T OR C         CLOUDY    83  51  33 SE17G31   30.11R

$$
NMZ519>523-300200-
CENTRAL VALLEYS/CENTRAL HIGHLANDS

CITY           SKY/WX    TMP DP  RH WIND       PRES   REMARKS
ALBUQUERQUE    PTCLDY    83  42  23 E16       30.18S
DOUBLE EAGLE   PTCLDY    81  45  28 E9        30.22F
MORIARTY ARPT  FAIR      78  43  28 NW6       30.28S
CLINES CORNERS MOCLDY    71  46  40 E7        30.33S
BELEN          FAIR      86  43  22 E9        30.16S
SOCORRO        NOT AVBL

$$
NMZ524>526-539-540-300200-
SOUTHCENTRAL MOUNTAINS

CITY           SKY/WX    TMP DP  RH WIND       PRES   REMARKS
RUIDOSO        PTCLDY    72  48  43 MISG      30.32S

$$
NMZ527>531-300200-
NORTHEAST HIGHLANDS/NORTHEAST PLAINS

CITY           SKY/WX    TMP DP  RH WIND       PRES   REMARKS
LAS VEGAS      PTCLDY    75  44  33 W5        30.33S
RATON          PTCLDY    72  45  37 S6        30.28S
CLAYTON        CLEAR     73  50  44 SE8       30.21F

$$
NMZ532>537-300200-
EASTCENTRAL PLAINS

CITY           SKY/WX    TMP DP  RH WIND       PRES   REMARKS
TUCUMCARI      PTCLDY    81  56  42 SE12      30.14R
CANNON AFB     PTCLDY    75  58  56 SW6       30.17S
CLOVIS AIRPORT PTCLDY    75  55  50 SE7       30.18S

$$
NMZ028-029-538-300200-
SOUTHEAST PLAINS

CITY           SKY/WX    TMP DP  RH WIND       PRES   REMARKS
ROSWELL        CLOUDY    78  60  53 SE20      30.11R
ARTESIA        MOCLDY    82  59  44 SE12      30.08R
CARLSBAD       NOT AVBL
HOBBS          PTCLDY    75  55  50 SE7       30.14


$$


USA.gov is the U.S. government's official web portal to all federal, state and local government web resources and services.